PVG77 BIKF-RJAA

Flight info

Callsign PVG77
Flight time N/A
Altitude 30000
Route SORIR3A SORIR DCT JV/N0491F300 DCT YRB/N0492F320 DCT YEV DCT FAI/N0486F340 DCT BGQ DCT EHM DCT CHUUK DCT EXAMY DCT 48N170E/N0491F360 43N160E 38N150E AVBET Y809 SUPOK
Aircraft B77W/H-SDE1E2E3FGHIJ2J3J4J5M1RWXY/LB1D1

Departure

Time 2026-05-04 23:21
Airport Keflavik International Airport (BIKF)

Arrival

Time N/A
Airport Narita International Airport (RJAA)
Time Latitude Longitude Altitude Speed Heading
2026-05-04 23:03 63.99268 -22.62461 148 ft 0 kts 360°
2026-05-04 23:06 63.99254 -22.62462 148 ft 2 kts 359°
2026-05-04 23:07 63.99239 -22.62462 148 ft 2 kts 359°
2026-05-04 23:07 63.99224 -22.62461 148 ft 2 kts 359°
2026-05-04 23:07 63.99209 -22.62462 148 ft 2 kts
2026-05-04 23:07 63.99195 -22.62469 148 ft 2 kts 29°
2026-05-04 23:08 63.99184 -22.62489 148 ft 2 kts 51°
2026-05-04 23:08 63.99176 -22.62518 147 ft 2 kts 72°
2026-05-04 23:08 63.99175 -22.62544 147 ft 0 kts 89°
2026-05-04 23:08 63.99175 -22.62523 147 ft 3 kts 85°
2026-05-04 23:09 63.99176 -22.62446 148 ft 3 kts 90°
2026-05-04 23:09 63.99176 -22.62430 149 ft 0 kts 90°
2026-05-04 23:09 63.99176 -22.62429 149 ft 0 kts 90°
2026-05-04 23:11 63.99175 -22.62420 149 ft 2 kts 91°
2026-05-04 23:11 63.99174 -22.62355 150 ft 5 kts 92°
2026-05-04 23:11 63.99171 -22.62221 151 ft 11 kts 92°
2026-05-04 23:11 63.99169 -22.61984 151 ft 17 kts 87°
2026-05-04 23:12 63.99172 -22.61730 151 ft 14 kts 90°
2026-05-04 23:12 63.99172 -22.61520 151 ft 12 kts 90°
2026-05-04 23:12 63.99172 -22.61344 151 ft 9 kts 90°
2026-05-04 23:12 63.99172 -22.61225 153 ft 5 kts 90°
2026-05-04 23:13 63.99171 -22.61132 154 ft 6 kts 90°
2026-05-04 23:13 63.99154 -22.61014 154 ft 9 kts 130°
2026-05-04 23:13 63.99085 -22.60954 154 ft 12 kts 172°
2026-05-04 23:13 63.98982 -22.60945 154 ft 16 kts 179°
2026-05-04 23:14 63.98868 -22.60946 157 ft 16 kts 180°
2026-05-04 23:14 63.98753 -22.60950 158 ft 17 kts 181°
2026-05-04 23:14 63.98628 -22.60960 158 ft 18 kts 182°
2026-05-04 23:14 63.98495 -22.60975 158 ft 19 kts 183°
2026-05-04 23:15 63.98358 -22.60995 160 ft 19 kts 182°
2026-05-04 23:15 63.98225 -22.60969 162 ft 18 kts 173°
2026-05-04 23:15 63.98097 -22.60947 162 ft 18 kts 179°
2026-05-04 23:15 63.97968 -22.60949 161 ft 18 kts 180°
2026-05-04 23:16 63.97838 -22.60946 159 ft 18 kts 179°
2026-05-04 23:16 63.97712 -22.60947 159 ft 17 kts 180°
2026-05-04 23:16 63.97589 -22.60948 157 ft 18 kts 179°
2026-05-04 23:16 63.97459 -22.60949 154 ft 18 kts 180°
2026-05-04 23:17 63.97320 -22.60950 151 ft 20 kts 179°
2026-05-04 23:17 63.97187 -22.60949 149 ft 18 kts 179°
2026-05-04 23:17 63.97059 -22.60950 145 ft 17 kts 179°
2026-05-04 23:17 63.96938 -22.60948 141 ft 17 kts 180°
2026-05-04 23:18 63.96816 -22.60952 136 ft 17 kts 181°
2026-05-04 23:18 63.96694 -22.60959 132 ft 17 kts 180°
2026-05-04 23:18 63.96571 -22.60955 127 ft 17 kts 177°
2026-05-04 23:18 63.96482 -22.60882 125 ft 11 kts 127°
2026-05-04 23:19 63.96466 -22.60767 125 ft 7 kts 98°
2026-05-04 23:19 63.96466 -22.60632 126 ft 8 kts 66°
2026-05-04 23:19 63.96500 -22.60579 128 ft 4 kts 13°
2026-05-04 23:19 63.96508 -22.60575 129 ft 0 kts 10°
2026-05-04 23:20 63.96669 -22.60540 134 ft 57 kts
2026-05-04 23:20 63.97294 -22.60555 156 ft 122 kts 360°
2026-05-04 23:21 63.98360 -22.60569 170 ft 182 kts 360°
2026-05-04 23:21 63.99752 -22.60585 339 ft 221 kts
2026-05-04 23:21 64.01306 -22.60560 1423 ft 227 kts
2026-05-04 23:21 64.02850 -22.60543 2411 ft 223 kts
2026-05-04 23:22 64.04425 -22.60881 2674 ft 238 kts 343°
2026-05-04 23:22 64.05915 -22.62662 3132 ft 247 kts 320°
2026-05-04 23:22 64.06976 -22.65724 3662 ft 254 kts 296°
2026-05-04 23:22 64.07529 -22.69544 4362 ft 252 kts 287°
2026-05-04 23:23 64.07972 -22.73328 5002 ft 251 kts 288°
2026-05-04 23:23 64.08440 -22.77171 5646 ft 250 kts 288°
2026-05-04 23:23 64.08913 -22.80948 6226 ft 251 kts 288°
2026-05-04 23:23 64.09389 -22.84743 6816 ft 251 kts 288°
2026-05-04 23:24 64.09883 -22.88686 7181 ft 261 kts 288°
2026-05-04 23:24 64.10377 -22.92643 7749 ft 262 kts 288°
2026-05-04 23:24 64.10876 -22.96647 8362 ft 262 kts 288°
2026-05-04 23:24 64.11365 -23.00587 8925 ft 263 kts 288°
2026-05-04 23:25 64.11860 -23.04582 9497 ft 264 kts 288°
2026-05-04 23:25 64.12360 -23.08620 10040 ft 265 kts 288°
2026-05-04 23:25 64.12858 -23.12660 10565 ft 267 kts 289°
2026-05-04 23:25 64.13374 -23.16852 10789 ft 281 kts 289°
2026-05-04 23:26 64.13917 -23.21265 10967 ft 296 kts 288°
2026-05-04 23:26 64.14482 -23.25887 11202 ft 310 kts 288°
2026-05-04 23:26 64.15073 -23.30733 11415 ft 324 kts 288°
2026-05-04 23:26 64.15691 -23.35822 11703 ft 336 kts 288°
2026-05-04 23:27 64.16315 -23.40983 12272 ft 340 kts 288°
2026-05-04 23:27 64.16941 -23.46177 12978 ft 340 kts 288°
2026-05-04 23:27 64.17564 -23.51366 13664 ft 340 kts 288°
2026-05-04 23:27 64.18252 -23.56551 14271 ft 342 kts 293°
2026-05-04 23:28 64.19209 -23.61535 14860 ft 343 kts 296°
2026-05-04 23:28 64.20209 -23.66441 15497 ft 343 kts 295°
2026-05-04 23:28 64.21213 -23.71399 16140 ft 344 kts 295°
2026-05-04 23:28 64.22200 -23.76313 16732 ft 345 kts 295°
2026-05-04 23:29 64.23202 -23.81327 17278 ft 348 kts 295°
2026-05-04 23:29 64.24217 -23.86419 17792 ft 351 kts 295°
2026-05-04 23:29 64.25221 -23.91472 18351 ft 352 kts 295°
2026-05-04 23:29 64.26236 -23.96596 18939 ft 353 kts 295°
2026-05-04 23:30 64.27242 -24.01685 19449 ft 355 kts 295°
2026-05-04 23:30 64.28265 -24.06875 19874 ft 359 kts 295°
2026-05-04 23:30 64.29298 -24.12130 20310 ft 363 kts 295°
2026-05-04 23:30 64.30333 -24.17406 20764 ft 366 kts 295°
2026-05-04 23:31 64.31376 -24.22735 21220 ft 368 kts 295°
2026-05-04 23:31 64.32426 -24.28121 21669 ft 370 kts 295°
2026-05-04 23:31 64.33473 -24.33500 22075 ft 374 kts 295°
2026-05-04 23:31 64.34544 -24.39018 22491 ft 376 kts 295°
2026-05-04 23:32 64.35596 -24.44457 22917 ft 378 kts 295°
2026-05-04 23:32 64.36663 -24.49983 23318 ft 381 kts 295°
2026-05-04 23:32 64.37742 -24.55587 23689 ft 383 kts 295°
2026-05-04 23:32 64.38827 -24.61243 24020 ft 387 kts 295°
2026-05-04 23:33 64.39926 -24.66862 24405 ft 389 kts 297°
2026-05-04 23:33 64.41291 -24.72232 24842 ft 390 kts 303°
2026-05-04 23:33 64.42877 -24.77229 25211 ft 392 kts 306°
2026-05-04 23:33 64.44518 -24.82287 25499 ft 396 kts 306°
2026-05-04 23:34 64.46178 -24.87429 25852 ft 399 kts 305°
2026-05-04 23:34 64.47830 -24.92567 26231 ft 400 kts 305°
2026-05-04 23:34 64.49474 -24.97703 26589 ft 402 kts 305°
2026-05-04 23:34 64.51144 -25.02937 26936 ft 405 kts 305°
2026-05-04 23:35 64.52801 -25.08147 27243 ft 408 kts 305°
2026-05-04 23:35 64.54485 -25.13461 27508 ft 411 kts 305°
2026-05-04 23:35 64.56180 -25.18817 27879 ft 412 kts 305°
2026-05-04 23:35 64.57865 -25.24161 28246 ft 414 kts 305°
2026-05-04 23:36 64.59569 -25.29576 28511 ft 417 kts 304°
2026-05-04 23:36 64.61289 -25.35060 28791 ft 420 kts 305°
2026-05-04 23:36 64.63011 -25.40561 29085 ft 422 kts 305°
2026-05-04 23:36 64.64727 -25.46055 29427 ft 423 kts 305°
2026-05-04 23:37 64.66441 -25.51560 29762 ft 424 kts 305°
2026-05-04 23:37 64.68187 -25.57179 30114 ft 425 kts 305°
2026-05-04 23:37 64.69904 -25.62720 30316 ft 426 kts 305°
2026-05-04 23:37 64.71626 -25.68289 30332 ft 423 kts 304°
2026-05-04 23:38 64.75049 -25.79401 30333 ft 421 kts 304°
2026-05-04 23:38 64.78444 -25.90481 30327 ft 422 kts 304°
2026-05-04 23:39 64.81844 -26.01631 30329 ft 422 kts 304°
2026-05-04 23:39 64.85225 -26.12776 30334 ft 421 kts 304°
2026-05-04 23:40 64.88615 -26.24002 30326 ft 421 kts 304°
2026-05-04 23:40 64.91974 -26.35187 30321 ft 421 kts 304°
2026-05-04 23:41 64.95335 -26.46432 30332 ft 421 kts 304°
2026-05-04 23:41 64.98696 -26.57733 30327 ft 422 kts 304°
2026-05-04 23:42 65.02023 -26.68977 30337 ft 420 kts 303°
2026-05-04 23:42 65.05326 -26.80195 30339 ft 417 kts 303°
2026-05-04 23:43 65.08616 -26.91430 30341 ft 419 kts 303°
2026-05-04 23:43 65.11926 -27.02787 30349 ft 419 kts 303°
2026-05-04 23:44 65.15198 -27.14069 30348 ft 417 kts 303°
2026-05-04 23:44 65.18157 -27.24322 30346 ft 416 kts 303°
2026-05-04 23:45 65.21429 -27.35714 30346 ft 417 kts 303°
2026-05-04 23:45 65.24680 -27.47096 30344 ft 414 kts 303°
2026-05-04 23:46 65.27920 -27.58492 30343 ft 416 kts 303°
2026-05-04 23:46 65.31122 -27.69814 30354 ft 413 kts 302°
2026-05-04 23:47 65.34332 -27.81223 30355 ft 414 kts 303°